Huvudsida
METAR-TAF:

METAR-TAF

Flygplatser :

Seinäjoki flygplats

Seinäjoki-Ilmola, Finland

latitud: 62-41-37N, longitud: 022-49-55E, höjd: 91 m

Aktuellt väderrapport

Denna rapport gjordes för 33 minuter sedan, klockan 15:20 UTC
Vind 6 kt från sydost
Temperatur -5°C
Fuktighet 86%
Tryck 1030 hPa
Sikt 10 km eller mer
Mulet på en höjd av 2500 ft

METAR: EFSI 161520Z AUTO 14006KT 9999 OVC025 M05/M07 Q1030

Tid: 17:53 (15:53 UTC)


TAF: saknas

Aktuella väderrapporter och prognoser från 4000 flygplatser (METAR- och TAF-rapporter).

De tillgängliga stationerna syns som gula och röda prickar på kartan.

För musen över prickarna för att se namnen på stationerna.

Klicka sedan för att få väderrapporter och prognoser.

För att ändra kartan: Klicka på de gröna knapparna med ett svart kors på för att zooma in; den gröna knappen med ett streck på för att zooma ut; eller på de gröna pilarna för angränsande kartor.


METAR-TAF: